Temperature
15 15 16 16 19 19 20 19 19 18 18 16 16 17 19 19 19 17 13 13 13 13 13 13 13 13 13 13 13 13 13 13 13 13 13 14 13 14 14 13 13 13 13 14 14 14 14 14 14
15 15 15 17 19 19 19 19 18 18 17 14 14 15 16 16 13 12 12 13 12 12 12 12 12 12 12 13 13 13 13 13 13 13 13 13 13 13 13 13 13 13 13 13 13 13 14 14 14
14 15 16 18 19 20 20 19 18 16 14 14 14 14 15 14 11 11 12 12 12 12 12 12 12 12 12 12 12 12 12 13 13 13 13 13 13 13 13 13 13 13 13 13 13 13 13 14 14
14 15 16 18 18 18 19 18 16 16 14 13 14 14 12 11 11 11 12 12 11 11 11 12 12 12 12 12 12 12 12 12 12 13 13 13 13 13 13 13 13 13 13 13 13 13 13 13 13
14 16 17 17 17 17 17 16 15 17 16 14 14 15 12 11 11 12 12 11 11 11 11 11 11 11 11 11 11 11 11 12 12 12 12 12 12 12 12 12 12 12 12 12 12 13 13 13 13
14 16 17 18 17 17 16 15 15 16 15 13 13 14 12 10 11 11 11 11 10 11 11 11 11 11 11 11 11 11 11 12 12 12 12 12 12 12 12 12 12 12 12 12 12 13 13 13 13
15 16 17 17 17 17 16 14 15 16 15 14 12 14 11 10 10 11 10 10 10 10 10 10 10 10 11 11 11 11 11 12 12 12 12 12 12 12 12 12 12 12 12 12 12 12 12 12 13
14 16 16 16 17 17 15 13 12 14 14 11 11 13 12 9 10 10 9 9 9 9 10 10 10 10 10 11 11 11 11 11 12 12 12 12 12 12 12 12 12 12 12 12 12 12 12 12 12
13 15 16 16 16 16 13 13 11 10 11 9 9 10 9 9 9 9 9 9 9 9 9 9 9 10 10 10 10 10 11 11 11 11 11 11 11 11 11 11 11 11 11 11 11 11 12 12 12
13 15 15 15 15 15 13 13 11 11 11 10 9 9 9 9 9 8 8 9 9 9 9 9 9 9 10 10 10 10 10 10 10 11 11 11 11 11 11 11 11 11 11 11 11 11 11 11 11
13 14 13 12 12 12 12 11 10 12 13 11 10 8 8 8 8 8 8 8 9 9 9 9 9 9 9 9 9 10 10 10 10 10 10 10 11 11 11 10 10 10 10 10 10 10 10 11 11
11 11 11 11 9 10 11 10 10 10 11 9 9 8 8 8 8 8 8 8 8 8 8 8 9 9 9 9 9 9 9 9 9 10 10 10 10 10 10 10 10 10 10 10 10 10 10 10 10
11 11 9 9 8 8 9 9 10 9 8 8 8 8 8 7 7 7 7 7 7 8 8 8 8 8 8 9 9 9 9 9 9 9 9 9 9 10 10 10 10 9 9 9 9 9 9 9 9
10 10 9 9 8 8 9 9 8 8 7 7 7 7 7 7 7 7 7 7 7 7 7 7 7 7 8 8 8 8 8 8 8 8 9 9 9 9 9 9 9 9 9 9 9 9 9 9 9
8 10 10 9 9 8 9 9 9 8 7 6 6 6 6 6 6 6 7 7 7 7 6 6 7 7 7 7 7 8 8 8 8 8 8 8 8 8 8 8 8 8 8 8 8 8 8 8 8
10 10 11 10 8 8 9 11 10 6 6 7 6 6 6 5 6 6 6 6 6 6 6 6 6 6 6 6 7 7 7 7 7 7 7 7 7 8 8 8 8 8 8 7 7 7 7 7 8
10 11 11 10 8 8 9 10 9 6 6 6 6 6 5 5 5 5 5 5 5 5 6 5 5 6 6 6 6 6 6 6 7 7 7 7 7 7 7 7 7 7 7 7 7 7 7 7 7
11 11 11 10 8 8 8 9 8 6 6 6 6 5 5 5 5 5 5 5 5 5 5 5 5 5 5 5 5 5 6 6 6 6 6 6 6 6 6 6 6 6 6 6 6 6 6 6 6
10 10 10 9 7 7 8 8 8 7 6 6 6 5 4 4 4 4 4 4 4 4 4 4 4 4 4 5 5 5 5 5 5 5 5 5 5 6 6 6 6 6 6 6 6 5 5 5 5
8 9 9 8 6 7 7 7 8 7 6 5 4 4 4 3 3 4 4 4 4 4 4 4 4 4 4 4 4 4 5 5 5 5 5 5 5 5 5 5 5 5 5 5 5 5 5 5 5
7 8 8 7 6 5 6 8 7 6 5 4 3 3 3 2 2 2 3 3 3 3 3 3 3 3 3 3 4 4 4 4 4 4 4 4 4 4 4 4 4 4 4 4 4 4 4 4 4
7 6 6 6 6 7 6 8 8 6 5 4 3 2 2 1 1 1 2 2 2 2 2 2 3 3 3 3 3 3 3 3 4 4 4 4 4 4 4 4 4 3 3 4 4 3 4 3 3
6 5 5 5 6 6 6 6 8 4 5 4 3 2 1 0 0 1 1 1 1 2 2 2 2 2 2 2 2 2 3 3 3 3 3 3 3 3 3 3 3 3 3 3 3 3 3 3 3
4 5 4 5 5 5 6 6 8 6 5 4 3 1 0 -0 -0 -0 0 0 1 1 1 1 1 2 2 2 2 2 2 2 2 2 2 2 2 2 2 2 2 2 2 2 2 2 2 2 2
4 5 6 6 6 7 4 4 6 5 3 2 1 0 -1 -1 -1 -1 -1 -0 0 0 0 0 1 1 1 1 1 1 1 2 2 2 2 2 2 2 2 2 2 2 2 2 2 2 2 2 1
4 5 6 6 7 7 3 4 5 2 0 -0 -1 -1 -2 -2 -2 -2 -1 -1 -1 -0 -0 -0 -0 0 0 1 1 1 1 1 1 1 1 1 1 2 1 1 1 1 1 1 1 1 1 1 1
4 4 4 5 4 4 6 4 4 2 1 -0 -1 -2 -2 -3 -3 -2 -2 -2 -1 -1 -1 -1 -1 -0 -0 -0 0 0 0 0 1 1 1 1 1 1 1 1 1 1 1 1 0 1 1 1 1
3 3 3 4 4 5 6 5 5 2 1 -0 -1 -2 -3 -3 -3 -3 -2 -2 -2 -2 -2 -2 -1 -1 -1 -1 -1 -0 -0 -0 -0 -0 0 0 0 0 0 0 0 0 0 0 0 -0 -0 -0 -0
2 2 3 4 3 5 5 6 3 2 0 -0 -1 -2 -3 -4 -4 -4 -3 -3 -3 -3 -2 -2 -2 -2 -1 -1 -1 -1 -1 -1 -1 -0 -0 -0 -0 -0 -0 -0 -0 -0 -0 -0 -0 -1 -1 -1 -1
1 2 2 3 3 2 4 4 0 -1 -1 -2 -2 -3 -4 -4 -4 -4 -4 -4 -4 -3 -3 -3 -3 -2 -2 -2 -2 -2 -1 -1 -1 -1 -1 -1 -1 -1 -1 -1 -1 -1 -1 -1 -1 -1 -1 -1 -1
Wind_Speed
1 1 2 3 5 5 10 7 5 5 4 2 1 2 3 3 2 1 3 3 4 6 6 6 6 8 9 9 9 10 10 10 11 12 12 12 12 12 12 12 12 12 13 13 14 14 14 14 14
1 2 3 4 7 10 8 8 8 6 3 3 3 2 2 2 2 3 3 2 4 6 6 6 8 9 9 10 10 10 11 11 11 11 12 12 12 12 12 12 12 12 13 13 13 13 14 14 14
3 2 3 4 8 11 8 5 6 4 3 3 3 1 1 1 2 2 2 4 5 6 6 7 8 9 10 10 10 11 11 11 11 11 11 11 12 12 12 12 12 12 12 12 13 13 13 13 13
3 3 3 6 12 10 7 4 4 5 4 3 3 3 2 2 1 2 4 5 6 6 6 7 9 9 9 10 10 10 10 10 11 11 10 11 11 11 12 12 12 12 12 13 13 13 12 13 12
2 4 6 9 13 9 6 5 5 5 5 4 4 3 2 2 3 3 5 6 7 6 6 7 8 9 9 10 10 10 10 10 10 10 10 10 10 11 11 11 11 11 12 12 12 12 12 12 12
4 4 8 12 13 9 6 6 6 6 5 4 4 4 3 4 3 4 5 6 6 6 6 7 8 8 9 10 10 10 10 10 10 10 10 9 10 10 10 10 10 10 11 11 11 11 11 12 12
5 5 9 11 11 11 7 6 7 7 7 5 3 4 4 4 3 4 6 6 6 6 6 6 7 7 9 9 10 10 10 10 10 10 10 10 10 10 10 10 9 9 10 10 10 11 11 11 11
3 4 8 10 11 11 6 5 3 6 5 2 3 4 3 4 5 6 6 6 6 6 6 6 6 6 7 8 9 9 11 11 10 10 10 10 10 9 9 9 9 9 9 9 9 10 10 11 11
4 7 11 11 9 7 6 6 3 1 3 3 1 1 3 7 8 8 6 5 5 5 5 5 5 6 6 7 8 9 10 10 10 9 9 8 7 7 7 8 8 8 8 8 9 9 10 9 9
6 10 11 6 5 4 6 6 5 5 5 4 2 2 5 9 9 9 8 7 6 5 4 4 5 5 6 6 6 6 6 7 7 6 6 6 6 6 7 8 9 8 8 8 8 9 8 6 6
6 9 7 5 3 3 5 5 5 6 6 6 6 6 8 9 9 9 8 7 6 6 5 4 4 5 5 5 5 5 5 5 5 6 6 5 6 5 5 5 5 6 6 5 6 6 5 5 4
6 6 5 4 3 3 4 4 4 6 4 0 2 6 9 10 10 9 8 7 6 6 5 4 4 5 5 5 5 5 5 4 4 4 5 5 4 4 4 4 4 4 3 4 4 4 4 5 5
8 5 3 3 2 2 3 4 4 4 3 1 3 7 8 9 9 8 7 6 6 5 5 4 4 5 5 5 4 5 5 4 4 4 5 4 4 4 4 4 4 4 3 3 3 3 4 4 4
5 5 4 3 4 3 4 5 4 5 3 4 5 6 7 8 8 8 7 7 7 6 5 4 4 5 5 5 4 4 5 4 5 4 4 4 4 4 3 4 4 4 3 3 3 3 3 3 3
4 4 4 4 4 3 4 7 8 5 4 5 6 6 6 7 7 8 8 8 7 7 6 5 5 5 5 5 5 4 5 5 4 4 4 4 4 4 3 3 3 3 3 3 3 3 3 3 3
4 5 7 5 4 4 6 11 4 4 6 7 6 6 6 6 7 7 7 7 7 7 6 6 5 5 5 5 5 4 5 4 4 4 4 4 4 4 3 3 3 3 3 2 2 2 2 2 2
6 8 9 5 4 4 7 9 3 3 6 6 6 6 6 6 7 7 7 7 7 7 7 6 5 5 4 4 4 4 5 4 4 4 4 4 4 4 3 3 3 3 3 2 2 2 1 2 1
7 8 8 8 3 5 8 10 7 5 6 7 6 5 6 6 7 6 7 7 7 7 7 7 6 5 5 4 4 4 4 4 4 4 4 4 4 4 3 3 3 3 2 2 2 2 1 1 1
6 7 9 6 2 5 10 12 11 7 7 8 7 6 6 6 5 5 5 6 7 7 7 7 6 6 5 3 3 4 4 4 3 4 4 5 4 4 3 2 3 2 2 2 2 2 2 1 1
7 9 8 4 2 4 7 12 11 8 7 6 6 6 5 5 4 3 4 6 7 7 7 7 7 6 6 4 4 3 4 3 4 4 4 5 5 4 4 3 3 3 2 2 3 3 2 1 1
7 8 8 5 2 3 5 9 7 5 4 4 4 5 5 5 5 4 3 5 6 6 7 7 7 7 7 6 4 2 3 3 4 4 4 5 5 5 5 5 4 4 4 4 4 3 3 3 2
7 5 5 4 4 4 3 7 5 4 4 4 3 3 3 3 3 3 3 3 4 5 6 6 7 7 6 6 6 6 5 5 5 5 5 5 6 6 6 6 5 5 4 4 5 5 4 4 4
2 1 2 4 5 5 5 6 6 2 4 4 3 2 2 2 2 2 2 3 3 4 4 5 6 6 6 6 6 7 6 6 4 5 5 5 6 6 6 7 6 6 5 5 5 5 5 5 5
3 2 2 2 3 7 7 8 6 2 2 2 2 2 2 3 2 2 2 2 2 2 3 4 5 6 6 6 7 7 7 6 6 6 6 6 5 5 7 7 7 7 7 7 6 6 7 6 6
3 2 2 3 5 6 3 6 6 1 1 1 1 2 2 2 2 2 2 2 2 2 2 4 5 6 6 7 7 7 8 7 8 7 7 6 5 6 7 8 8 8 8 8 8 7 7 7 7
6 5 5 5 5 3 3 7 2 2 1 1 1 2 3 3 3 3 3 3 3 3 3 3 5 6 6 7 7 7 7 6 6 7 7 7 7 7 8 9 9 9 9 8 8 7 8 7 8
4 6 3 2 2 5 5 4 4 1 1 1 2 2 3 3 4 4 4 4 4 4 4 4 5 5 6 6 6 6 7 7 7 7 7 7 7 7 8 9 9 10 9 9 9 7 8 8 8
2 4 3 4 5 7 7 6 4 1 1 1 1 2 3 4 4 5 5 5 5 5 4 4 4 5 5 5 6 5 7 7 8 7 8 8 8 8 8 9 9 10 10 10 9 9 9 9 9
4 4 4 5 5 6 7 4 0 1 1 2 2 3 3 4 5 5 5 5 5 5 4 4 4 4 5 5 5 6 7 7 7 8 8 8 8 8 8 9 9 10 10 10 10 10 10 11 10
3 5 6 5 5 6 7 4 2 1 2 2 3 4 4 5 5 5 5 5 5 5 5 5 5 4 5 5 5 6 6 6 7 8 8 8 8 8 9 9 10 10 11 11 11 12 11 12 12
Wind_Direction
300 217 199 200 200 218 230 216 205 184 189 187 159 192 204 210 231 106 82 112 124 139 139 132 110 103 103 103 103 97 97 99 97 96 94 90 88 88 88 88 87 87 88 87 87 85 84 84 84
197 186 193 204 220 222 225 216 210 208 156 141 159 192 195 191 36 78 114 117 135 136 135 127 111 107 102 99 103 101 97 98 98 97 96 93 89 87 86 85 85 85 87 87 86 85 84 85 85
163 209 197 200 222 228 220 193 203 179 154 175 169 197 223 115 106 116 98 138 140 133 130 118 113 110 105 102 99 98 96 95 98 98 97 95 91 87 86 85 84 82 81 84 88 88 85 85 85
182 173 195 222 226 231 234 190 169 169 171 191 184 164 144 57 67 95 117 140 138 129 125 119 114 112 109 106 102 98 94 93 94 96 97 96 94 89 86 84 83 81 79 81 86 87 87 86 86
198 193 204 224 233 231 229 225 197 203 191 186 194 195 161 103 71 103 134 139 135 126 122 122 115 117 115 109 105 101 97 93 92 93 95 97 97 94 89 85 83 83 82 83 84 86 86 86 86
183 202 216 227 229 227 226 217 206 219 209 187 196 200 151 103 107 124 136 134 128 124 119 116 115 112 114 112 108 104 100 94 92 92 91 91 95 97 93 90 87 85 84 84 85 86 88 86 84
204 207 228 232 232 230 221 198 211 218 215 202 197 191 156 136 121 136 139 130 120 118 116 113 115 116 109 104 103 104 102 96 93 90 89 87 88 92 94 91 90 89 87 85 87 87 88 88 85
215 209 226 227 228 233 200 180 207 222 219 141 192 206 165 154 141 139 135 131 122 117 115 112 110 114 118 112 102 99 96 90 89 85 84 87 88 90 89 92 90 90 90 88 88 89 89 89 86
202 219 228 224 224 224 184 188 183 191 167 158 163 27 66 132 142 141 140 141 137 128 123 119 112 110 111 111 106 101 95 89 88 85 83 89 94 94 92 82 87 90 91 90 89 89 89 91 86
204 225 233 232 228 212 184 197 176 177 192 200 184 124 121 144 154 158 161 163 161 154 146 131 123 117 115 110 113 109 102 98 95 94 93 90 87 81 82 80 79 84 90 93 88 90 92 92 91
207 230 232 224 217 201 193 191 187 199 218 221 211 177 157 161 168 174 176 175 172 166 158 149 134 125 118 113 111 104 99 96 95 94 93 94 90 86 82 84 82 82 84 91 92 92 85 83 85
210 230 230 223 199 199 202 186 190 217 238 357 197 164 164 174 180 184 183 180 175 170 167 161 147 136 128 120 114 109 104 96 93 94 94 96 92 88 85 80 77 74 75 81 86 86 86 86 86
220 226 225 217 182 187 189 208 217 227 233 130 133 156 174 183 188 190 187 181 178 176 170 168 161 151 142 130 118 115 113 109 105 99 95 93 94 93 88 86 80 73 76 79 79 86 91 91 86
211 210 219 220 209 211 217 233 227 242 208 179 174 182 189 192 193 190 191 191 189 185 178 173 169 164 154 145 134 127 124 120 116 107 102 102 97 95 95 89 85 78 72 76 83 85 93 96 90
174 206 232 228 219 207 211 237 232 230 196 202 207 206 202 203 199 200 200 199 196 191 185 181 175 168 166 158 150 139 133 132 122 119 119 113 107 107 104 101 92 85 83 84 87 87 85 91 95
188 217 237 219 207 206 223 248 219 195 204 220 223 220 216 214 214 215 210 205 199 193 189 184 178 173 173 167 159 148 144 140 132 130 132 129 122 118 112 107 103 99 103 96 90 102 106 103 101
205 231 239 227 201 208 223 253 234 193 214 229 232 229 226 227 227 223 216 211 204 199 193 188 182 180 177 174 167 156 151 152 148 142 140 144 139 135 126 115 111 123 112 104 98 113 132 137 116
221 231 238 237 199 214 231 251 256 228 229 241 241 235 231 233 235 226 215 211 207 202 198 195 189 185 182 177 172 164 161 160 156 155 153 157 154 151 145 138 129 125 128 130 126 131 126 149 143
237 237 244 247 206 229 243 256 259 249 243 249 248 244 241 244 244 228 214 206 203 203 201 200 195 190 183 184 190 187 186 180 173 171 171 169 165 158 155 154 153 153 156 160 154 152 150 145 153
235 244 252 258 244 247 265 266 260 246 241 244 250 254 257 261 252 235 217 206 205 204 204 203 202 199 197 201 200 211 191 193 188 182 184 184 181 174 177 175 179 176 174 172 169 162 178 183 190
235 243 252 259 280 239 283 268 238 234 240 246 255 260 265 266 261 249 232 217 211 210 210 211 208 204 203 201 192 187 187 189 196 194 193 195 194 190 190 195 196 194 188 192 193 192 194 203 212
247 249 250 247 251 260 251 275 239 232 252 248 257 266 273 278 274 264 246 234 228 222 216 217 213 208 204 199 201 202 212 211 211 204 202 201 204 203 201 200 206 208 208 204 206 207 216 212 212
236 199 227 235 241 263 232 253 267 213 253 254 263 273 293 307 305 288 275 252 243 237 226 221 216 212 206 204 207 212 221 221 213 207 208 209 210 213 210 208 207 212 217 215 214 217 223 220 223
137 129 117 191 225 250 231 232 268 223 244 278 263 281 317 333 336 328 321 292 263 247 232 229 219 215 210 210 213 217 224 224 214 213 215 216 217 219 219 216 216 215 219 219 219 221 227 230 230
182 195 236 228 227 245 178 229 257 24 356 289 284 309 330 343 344 342 342 329 297 267 253 236 230 225 219 216 219 222 227 230 223 220 221 223 224 225 222 220 223 222 221 220 220 221 225 228 229
201 212 226 249 258 263 199 233 240 58 47 9 359 0 2 1 358 352 339 324 312 295 279 260 243 241 231 225 227 229 230 233 233 227 229 229 230 231 228 224 226 228 225 223 221 223 226 227 230
190 214 241 254 274 266 242 248 262 53 352 13 15 19 3 354 347 343 339 333 322 306 294 282 263 253 243 235 234 235 234 236 241 236 234 235 237 236 229 227 228 228 227 225 224 226 227 227 228
235 171 178 214 243 254 254 243 239 241 269 334 331 327 332 339 341 339 336 332 329 319 306 295 279 268 255 243 240 241 240 241 246 239 236 238 240 237 233 231 229 227 226 226 225 228 228 228 229
175 189 211 218 239 249 262 250 140 245 289 266 283 305 323 330 330 331 331 330 328 330 323 309 297 290 278 259 248 247 248 246 248 243 241 241 241 238 235 233 230 228 226 224 226 228 227 227 229
218 212 201 219 230 234 259 265 80 2 331 305 308 319 323 325 328 331 331 332 331 331 331 325 312 301 296 284 264 255 255 252 252 248 245 244 244 243 240 238 235 232 231 227 226 228 228 228 230
Height
1509 1510 1513 1516 1515 1512 1508 1508 1509 1512 1514 1517 1518 1518 1516 1517 1519 1524 1525 1522 1524 1526 1528 1530 1532 1534 1535 1536 1537 1538 1539 1540 1541 1541 1542 1542 1542 1543 1543 1543 1543 1544 1544 1544 1544 1545 1545 1545 1545
1508 1511 1515 1515 1509 1508 1507 1506 1509 1511 1515 1518 1518 1519 1519 1519 1521 1522 1521 1522 1524 1526 1528 1530 1532 1533 1535 1536 1537 1538 1539 1540 1541 1542 1542 1543 1543 1543 1544 1544 1544 1545 1545 1545 1545 1546 1546 1546 1547
1509 1511 1514 1510 1506 1502 1503 1506 1509 1514 1516 1517 1518 1519 1520 1520 1520 1520 1521 1522 1524 1526 1528 1530 1532 1533 1534 1536 1537 1538 1539 1540 1541 1542 1542 1543 1543 1544 1544 1545 1545 1545 1546 1546 1546 1546 1547 1547 1547
1509 1512 1513 1508 1504 1503 1503 1507 1511 1514 1516 1517 1518 1519 1519 1520 1519 1520 1520 1522 1524 1526 1528 1530 1531 1533 1534 1535 1536 1538 1539 1540 1541 1542 1542 1543 1543 1544 1545 1545 1545 1546 1546 1547 1547 1547 1547 1548 1548
1509 1510 1508 1506 1503 1504 1507 1510 1512 1511 1513 1516 1517 1516 1518 1518 1518 1518 1520 1522 1524 1526 1528 1529 1531 1532 1534 1535 1536 1537 1538 1540 1541 1541 1542 1543 1543 1544 1545 1545 1546 1546 1547 1547 1547 1548 1548 1548 1548
1509 1506 1503 1500 1500 1504 1507 1511 1512 1511 1513 1515 1516 1516 1517 1517 1517 1518 1520 1521 1523 1525 1527 1529 1530 1532 1533 1535 1536 1537 1538 1539 1540 1541 1542 1542 1543 1544 1544 1545 1546 1546 1547 1547 1547 1548 1548 1548 1549
1507 1503 1498 1497 1498 1501 1506 1509 1510 1509 1511 1514 1515 1515 1516 1516 1516 1518 1519 1521 1523 1525 1526 1528 1530 1531 1533 1534 1535 1536 1537 1538 1539 1540 1541 1542 1543 1543 1544 1545 1545 1546 1547 1547 1547 1548 1548 1548 1549
1504 1503 1499 1498 1497 1499 1505 1508 1509 1510 1510 1513 1514 1514 1515 1515 1515 1517 1519 1521 1522 1524 1525 1527 1529 1530 1532 1533 1534 1536 1537 1538 1539 1540 1540 1541 1542 1543 1543 1544 1545 1545 1546 1547 1547 1548 1548 1548 1549
1503 1502 1495 1494 1496 1498 1504 1507 1509 1509 1511 1511 1512 1513 1513 1513 1514 1516 1518 1520 1521 1523 1524 1526 1528 1529 1530 1532 1533 1534 1536 1537 1538 1539 1540 1540 1541 1542 1543 1543 1544 1545 1545 1546 1547 1547 1548 1548 1549
1501 1496 1492 1496 1498 1500 1504 1505 1507 1508 1509 1510 1511 1511 1511 1512 1513 1514 1515 1517 1519 1521 1522 1524 1526 1528 1529 1530 1532 1533 1534 1535 1537 1538 1539 1539 1540 1541 1542 1542 1543 1544 1545 1545 1546 1546 1547 1548 1548
1498 1494 1496 1499 1501 1502 1503 1505 1506 1506 1505 1507 1508 1509 1509 1510 1512 1513 1514 1516 1517 1519 1521 1522 1524 1526 1527 1529 1530 1531 1533 1534 1535 1536 1537 1538 1539 1540 1541 1541 1542 1543 1544 1544 1545 1546 1547 1547 1548
1498 1498 1499 1500 1502 1502 1503 1504 1505 1505 1505 1506 1507 1507 1508 1509 1510 1511 1513 1514 1516 1517 1519 1520 1522 1524 1525 1527 1528 1529 1531 1532 1533 1535 1536 1537 1537 1538 1539 1540 1541 1541 1542 1543 1544 1545 1545 1546 1547
1497 1498 1500 1501 1502 1502 1503 1503 1504 1504 1504 1504 1505 1506 1506 1507 1509 1510 1512 1513 1514 1515 1517 1518 1520 1522 1523 1525 1526 1528 1529 1530 1532 1533 1534 1535 1536 1537 1538 1538 1539 1540 1541 1542 1543 1544 1544 1545 1546
1496 1498 1499 1500 1501 1502 1502 1502 1503 1501 1503 1503 1503 1504 1505 1506 1507 1508 1509 1510 1512 1513 1515 1516 1518 1519 1521 1523 1524 1526 1527 1528 1530 1531 1532 1533 1534 1535 1536 1537 1538 1538 1539 1540 1541 1542 1543 1544 1544
1498 1498 1498 1499 1500 1501 1502 1499 1500 1500 1501 1502 1502 1502 1503 1504 1505 1506 1507 1508 1509 1511 1512 1514 1515 1517 1519 1520 1522 1523 1525 1526 1528 1529 1530 1531 1532 1533 1534 1535 1536 1537 1538 1539 1540 1541 1542 1542 1543
1496 1494 1491 1494 1498 1499 1501 1490 1495 1498 1499 1499 1500 1501 1501 1502 1503 1504 1505 1506 1507 1509 1510 1511 1513 1514 1516 1518 1519 1521 1522 1524 1525 1526 1528 1529 1530 1531 1532 1533 1534 1535 1536 1537 1538 1539 1540 1541 1541
1491 1487 1485 1491 1496 1497 1496 1489 1494 1496 1497 1497 1498 1498 1499 1500 1500 1501 1502 1503 1505 1506 1508 1509 1510 1512 1513 1515 1517 1518 1520 1521 1522 1524 1525 1526 1527 1528 1529 1530 1531 1532 1533 1534 1535 1537 1538 1539 1539
1483 1483 1484 1485 1492 1496 1494 1491 1493 1495 1495 1495 1495 1496 1496 1496 1497 1498 1499 1500 1502 1503 1505 1506 1508 1509 1511 1512 1514 1515 1517 1518 1519 1521 1522 1523 1524 1525 1527 1528 1529 1530 1531 1532 1533 1534 1535 1536 1537
1485 1484 1483 1486 1493 1494 1490 1489 1489 1491 1492 1492 1492 1493 1493 1494 1495 1496 1496 1497 1499 1500 1501 1503 1504 1506 1507 1509 1510 1512 1513 1515 1516 1518 1519 1520 1521 1522 1523 1525 1526 1527 1528 1529 1530 1531 1532 1533 1534
1488 1486 1485 1489 1494 1493 1490 1486 1485 1487 1488 1489 1490 1490 1491 1491 1492 1492 1493 1494 1495 1496 1498 1499 1501 1502 1504 1505 1507 1509 1510 1512 1513 1515 1516 1517 1518 1519 1520 1521 1522 1524 1525 1526 1527 1528 1529 1530 1531
1488 1487 1487 1489 1493 1494 1493 1480 1480 1483 1486 1487 1488 1489 1489 1489 1489 1489 1490 1491 1492 1493 1494 1495 1497 1498 1500 1502 1503 1505 1507 1508 1509 1510 1512 1513 1514 1515 1517 1518 1519 1520 1521 1522 1523 1524 1526 1526 1528
1487 1490 1492 1492 1490 1484 1490 1476 1474 1480 1483 1484 1486 1486 1486 1487 1487 1487 1487 1487 1488 1490 1491 1492 1494 1495 1496 1498 1499 1500 1502 1503 1505 1506 1508 1509 1510 1512 1513 1514 1515 1516 1517 1518 1519 1520 1522 1523 1524
1490 1494 1493 1493 1491 1490 1489 1486 1468 1480 1480 1481 1484 1484 1485 1485 1485 1484 1484 1485 1486 1487 1488 1489 1490 1491 1493 1494 1495 1497 1498 1500 1501 1502 1504 1505 1506 1507 1508 1510 1511 1512 1513 1514 1515 1516 1518 1519 1520
1495 1494 1495 1494 1490 1487 1483 1482 1467 1473 1477 1480 1482 1483 1484 1483 1483 1483 1483 1483 1483 1484 1484 1485 1486 1487 1489 1490 1491 1493 1494 1495 1496 1497 1499 1500 1501 1502 1503 1505 1506 1507 1508 1509 1511 1512 1513 1514 1515
1493 1490 1485 1483 1482 1473 1488 1484 1473 1476 1481 1482 1482 1483 1483 1483 1482 1482 1481 1481 1481 1481 1481 1482 1483 1484 1485 1486 1487 1488 1490 1491 1492 1493 1494 1495 1496 1497 1498 1499 1501 1502 1503 1504 1505 1506 1508 1509 1510
1490 1487 1483 1478 1470 1468 1489 1479 1473 1482 1483 1483 1483 1483 1482 1482 1481 1480 1480 1479 1479 1479 1479 1479 1479 1480 1481 1482 1483 1484 1485 1486 1487 1488 1489 1490 1491 1492 1494 1494 1495 1496 1497 1499 1500 1501 1502 1503 1504
1490 1488 1489 1487 1488 1482 1470 1476 1476 1480 1481 1482 1482 1482 1482 1481 1480 1479 1478 1477 1477 1476 1476 1476 1476 1476 1477 1477 1478 1479 1480 1481 1482 1483 1484 1485 1486 1487 1488 1489 1489 1490 1491 1493 1494 1495 1496 1497 1498
1492 1490 1491 1487 1481 1471 1464 1469 1467 1475 1477 1481 1482 1481 1481 1480 1479 1478 1477 1476 1475 1474 1474 1473 1473 1473 1473 1473 1474 1475 1475 1476 1477 1478 1478 1479 1480 1481 1482 1482 1483 1484 1485 1487 1488 1488 1490 1491 1491
1493 1493 1489 1484 1483 1473 1464 1463 1473 1476 1478 1480 1481 1481 1480 1479 1478 1477 1475 1474 1473 1472 1471 1470 1470 1470 1470 1470 1470 1470 1471 1471 1471 1472 1472 1473 1474 1474 1475 1476 1477 1478 1479 1480 1481 1482 1483 1484 1485
1492 1489 1488 1484 1482 1482 1469 1469 1478 1479 1480 1480 1480 1480 1479 1478 1477 1475 1474 1472 1471 1469 1468 1467 1467 1466 1466 1465 1465 1465 1465 1466 1466 1466 1466 1467 1467 1468 1469 1469 1470 1471 1472 1473 1474 1475 1476 1477 1478